This is the latest recevied weather packets stored in our database for station/object RA1AMW-14. If no packets are shown the sender has not sent any weather packets the latest 10 day(s).
| Time | Temp. | Humidity | Pressure | Rain* | Wind** | Luminosity | Snow |
|---|---|---|---|---|---|---|---|
| 1778112004 | 1.11° C | 10% | 999.6 hPa | 0 mm | - | - | - |
| 1778110804 | 1.11° C | 10% | 999.6 hPa | 0 mm | - | - | - |
| 1778109604 | 1.11° C | 10% | 999.5 hPa | 0 mm | - | - | - |
| 1778109004 | 1.67° C | 10% | 999.4 hPa | 0 mm | - | - | - |
| 1778108404 | 1.67° C | 10% | 999.2 hPa | 0 mm | - | - | - |
| 1778107804 | 1.67° C | 10% | 999.3 hPa | 0 mm | - | - | - |
| 1778107203 | 1.67° C | 10% | 999.4 hPa | 0 mm | - | - | - |
| 1778106604 | 1.67° C | 10% | 999.3 hPa | 0 mm | - | - | - |
| 1778104804 | 1.67° C | 10% | 999.2 hPa | 0 mm | - | - | - |
| 1778104203 | 2.22° C | 10% | 999 hPa | 0 mm | - | - | - |
| 1778103004 | 2.22° C | 10% | 998.9 hPa | 0 mm | - | - | - |
| 1778102403 | 2.22° C | 10% | 998.9 hPa | 0 mm | - | - | - |
| 1778101204 | 2.22° C | 10% | 998.8 hPa | 0 mm | - | - | - |
| 1778100603 | 2.78° C | 10% | 998.9 hPa | 0 mm | - | - | - |
| 1778099404 | 2.78° C | 10% | 998.6 hPa | 0 mm | - | - | - |
| 1778098803 | 3.33° C | 10% | 998.7 hPa | 0 mm | - | - | - |
| 1778098203 | 3.33° C | 10% | 998.7 hPa | 0 mm | - | - | - |
| 1778097003 | 3.89° C | 10% | 998.6 hPa | 0 mm | - | - | - |
| 1778096403 | 3.89° C | 10% | 998.6 hPa | 0 mm | - | - | - |
| 1778095804 | 4.44° C | 10% | 998.6 hPa | 0 mm | - | - | - |
| 1778095203 | 4.44° C | 10% | 998.7 hPa | 0 mm | - | - | - |
| 1778094603 | 4.44° C | 10% | 998.6 hPa | 0 mm | - | - | - |
| 1778094004 | 5° C | 10% | 998.6 hPa | 0 mm | - | - | - |
| 1778092803 | 5.56° C | 10% | 998.7 hPa | 0 mm | - | - | - |
| 1778092207 | 6.11° C | 10% | 998.8 hPa | 0 mm | - | - | - |
* Rain latest hour (hover to see other rain measurements)
** Current wind speed in m/s (hover to see current wind gust speed)